Airfield :
LOGIN :

Register | Disclaimer

   EN    FR    IT 

 










Legend :    VFR   Marginal VFR   IFR   Intensive IFR   Very Intensive IFR
Visi :
Ceiling :
>= 8 km
>= 3000ft
5 to 8 km
1000 to 3000 ft
1500m to 5 km
500 to 1000 ft
800 to 1500m
200 to 500 ft
< 800m
< 200 ft
Symbols :   Thunderstorms  Fog  Heavy snow  Heavy precipitations  Wind > 20 kt
SIGMETs :     Misc.  Thunderstorms  Icing  Turbulence  Mountain Waves  Volcanic Ashes







- Airport Elevation : 30 ft
- IATA code : CFN


EIDL - Donegal

CURRENT METAR :
  • 181500Z 22025KT 9999 FEW029 16/11 Q0994

EXPIRED METARs :
  • 181430Z 20022KT 9999 SCT022 17/12 Q0994
  • 181400Z 19021KT 9999 SCT019 BKN041 16/12 Q0994
  • 181300Z 18015KT 9999 FEW023 BKN026 BKN036 15/12 Q0994
  • 181230Z 19010KT 9999 FEW024 BKN031 BKN037 14/12 Q0995

TAF TAF EIDL
Valid from the 18 at 15:00 until the 18 at 21:00 UTC


181400Z 1815/1821 21020G32KT 9999 SCT012 BKN020
TEMPO 1815/1821 23025G40KT 5000 SHRA SCT018CB
No reported NOTAMs for that airfield.



MET'MAP, your aeronautical weather chart ! - Copyright ORBIFLY December 2007 - Disclaimer

ORBIFLY MET'MAP TEAM :

Programming & Development : Alexandra Zaïnal
Concept & Development : Baudouin d'Aumeries
Co-Development & Prog : Marc-Olivier Méhu
Technical & hardware support : Manuel Goepfert

Contact : metmap@orbifly.com




SOURCES & CREDITS :

   NOAA